Αρχική σελίδα
METAR-TAF:

METAR-TAF

Αεροδρόμια :

Tekamah Municipal Airport

Tekamah, Νεμπράσκα, Ηνωμένες Πολιτείες Αμερικής

γεωγραφικό πλάτος: 41-46-01N, γεωγραφικό μήκος: 096-10-40W, υψόμετρο: 313 μ

Παρών καιρός

Η αναφορά έγινε 37 λεπτά πριν, στις 10:54 UTC
Ήπιος άνεμος
Θερμοκρασία 18°C
Υγρασία 100%
Πίεση 1012 hPa
Ορατότητα: 11.3 χλμ
Νεφοσκεπής σε ύψος 900 πόδια

METAR: KTQE 191054Z AUTO 00000KT 7SM OVC009 18/18 A2988 RMK AO2 SLP108 T01780178

Χρόνος: 06:31 (11:31 UTC)


TAF: λείπει

Μετεωρολογικές αναφορές και προγνώσεις για περισσότερα από 4000 αεροδρόμια (δελτία METAR και TAF).

Οι διαθέσιμοι σταθμοί απεικονίζονται στο χάρτη με κίτρινες και κόκκινες κουκκίδες.

Μετακινήστε το ποντίκι πάνω από τις κουκκίδες για να δείτε το όνομα του σταθμού.

Στη συνέχεια, κάντε κλικ για να δείτε τις μετεωρολογικές αναφορές και τις προγνώσεις καιρού.

Για να αλλάξετε το χάρτη: κάντε κλικ στα πράσινα κουμπιά με τον μαύρο σταυρό για να ζουμάρετε, στο πράσινο κουμπί με την παύλα για να αφαιρέσετε το ζουμ ή στα πράσινα βέλη για να αντιπαραβάλλετε χάρτες.


METAR-TAF: